{"data":{"norad_id":62624,"intl_designator":"2025-009R","name":"FLOCK 4G-7","alt_names":[],"object_type":"PAYLOAD","status":"ACTIVE","operator":null,"country":"US","launch_date":"2025-01-14","launch_site_code":"AFWTR","launch_vehicle":null,"mission":null,"orbit_class":"UNKNOWN","rcs_meters":null,"size_class":null,"mass_kg":null,"dimensions":null,"purposes":["earth_obs"],"wikipedia_slug":null,"has_3d_model":false,"image_url":null,"decayed_at":null,"tle_current":{"epoch":"2026-09-19T11:48:01.032768Z","epoch_age_seconds":101641,"freshness":"FRESH","line1":"1 62624U 25009R   26262.49167862  .00006349  00000+0  21509-3 0  9998","line2":"2 62624  97.3882 343.3529 0002252  20.7816 339.3517 15.30919117 93328","mean_motion":15.30919117,"eccentricity":0.0002252,"inclination_deg":97.3882,"raan_deg":343.3529,"arg_perigee_deg":20.7816,"mean_anomaly_deg":339.3517,"bstar":0.00021509,"rev_number":9332,"period_min":94.06114170302,"perigee_km":471.52586467013,"apogee_km":474.61164774272,"semimajor_km":6851.2057562064,"source":"CELESTRAK","updated_at":"2026-09-20T09:00:34.717682Z"}}}